Satellite: CO-58
Catalog number: 28895
Epoch time:      07150.70889146
Element set:    0740
Inclination:      098.1382 deg
RA of node:       047.9041 deg
Eccentricity:    0.0018008
Arg of perigee:   163.4453 deg
Mean anomaly:     196.7360 deg
Mean motion:   14.59554492 rev/day
Decay rate:        9.5e-07 rev/day^2
Epoch rev:           08454
Checksum:              337

Satellite: NCUBE2
Catalog number: 28897
Epoch time:      07150.64854644
Element set:    0266
Inclination:      098.1338 deg
RA of node:       047.8027 deg
Eccentricity:    0.0017115
Arg of perigee:   165.5096 deg
Mean anomaly:     194.6621 deg
Mean motion:   14.59716887 rev/day
Decay rate:       1.76e-06 rev/day^2
Epoch rev:           07681
Checksum:              341

Satellite: NMARS
Catalog number: 29662
Epoch time:      07126.39603970
Element set:     263
Inclination:      051.6121 deg
RA of node:       302.3682 deg
Eccentricity:    0.0004459
Arg of perigee:   252.1654 deg
Mean anomaly:     110.7411 deg
Mean motion:   16.47981436 rev/day
Decay rate:   7.031946e-02 rev/day^2
Epoch rev:            2165
Checksum:              289

Satellite: FCAL
Catalog number: 29667
Epoch time:      07150.58093793
Element set:    0162
Inclination:      051.6364 deg
RA of node:       186.5902 deg
Eccentricity:    0.0013472
Arg of perigee:   278.9689 deg
Mean anomaly:     080.9791 deg
Mean motion:   15.87596270 rev/day
Decay rate:     1.2940e-04 rev/day^2
Epoch rev:           02520
Checksum:              334

Satellite: FALCON
Catalog number: 30776
Epoch time:      07151.84307726
Element set:      63
Inclination:      035.4350 deg
RA of node:       311.7423 deg
Eccentricity:    0.0002101
Arg of perigee:   322.4104 deg
Mean anomaly:     037.6465 deg
Mean motion:   15.02713074 rev/day
Decay rate:       3.15e-06 rev/day^2
Epoch rev:            1259
Checksum:              240

Satellite: MAST
Catalog number: 31126
Epoch time:      07150.77091565
Element set:    0045
Inclination:      098.0837 deg
RA of node:       224.4972 deg
Eccentricity:    0.0095978
Arg of perigee:   079.5160 deg
Mean anomaly:     281.6808 deg
Mean motion:   14.53343297 rev/day
Decay rate:       3.95e-06 rev/day^2
Epoch rev:           00632
Checksum:              317

Satellite: CAPE1
Catalog number: 31130
Epoch time:      07150.88439963
Element set:      32
Inclination:      098.0843 deg
RA of node:       224.5048 deg
Eccentricity:    0.0104075
Arg of perigee:   079.5549 deg
Mean anomaly:     281.7338 deg
Mean motion:   14.51853960 rev/day
Decay rate:       -3.5e-07 rev/day^2
Epoch rev:             610
Checksum:              290

/EX






More information about the Keps mailing list